Zurück zum Katalog

PSLV R/B

AktivHEO
NORAD 39636·ROCKET BODY·🇮🇳 India

Gestartet Apr 4, 2014 von Satish Dhawan Space Centre

Loading…

Nächste Überflüge (nächste 24 Stunden)

TLE

AktuellSource: Space-Track

Epoche: Sep 13, 2026, 22:59 UTC

1 39636U 14017B   26256.95785355  .00004112  00000-0  65804-3 0  9992
2 39636  19.0349 134.3214 5731128 264.4494  31.3796  4.45896014188000

Verfolge PSLV R/B in Echtzeit mit AllMySat

Download on the App Store